Weather History for Northolt, United Kingdom

Change the Weather History Date:

Tuesday, April 23, 2013

  Actual Average Record
Temperature  
Mean Temperature 58 °F -  
Max Temperature 69 °F 61 °F 80 °F (2011)
Min Temperature 48 °F 45 °F 39 °F (2003)
Degree Days  
Heating Degree Days 6    
Growing Degree Days 8 (Base 50)    
Moisture  
Dew Point 45 °F    
Average Humidity 64    
Maximum Humidity 87    
Minimum Humidity 33    
Precipitation  
Precipitation 0.00 in - - ()
Sea Level Pressure  
Sea Level Pressure 30.10 in    
Wind  
Wind Speed 8 mph ()    
Max Wind Speed 12 mph    
Max Gust Speed -    
Visibility 9.4 miles    
Events      
Averages and records for this station are not official NWS values.
T = Trace of Precipitation, MM = Missing Value Source: Averaged Metar Reports

Daily Weather History Graph

Daily Weather History Graph

Search for Another Location

Airport:

Trip Planner

Search our weather history database for the weather conditions in past years. The results will help you decide how hot, cold, wet, or windy it might be!

Date:

Astronomy

Apr. 23, 2013 Rise Set
Actual Time 5:48 AM BST 8:12 PM BST
Civil Twilight 5:12 AM BST 8:48 PM BST
Nautical Twilight 4:25 AM BST 9:35 PM BST
Astronomical Twilight 3:31 AM BST 10:30 PM BST
Moon 5:36 PM BST (4/23) 4:26 AM BST (4/23)
Length of Visible Light 15h 36m
Length of Day
14h 23m
Waxing Gibbous, 93% of the Moon is Illuminated
Apr 23
Waxing Gibbous
Apr 25
Full
May 2
Last Quarter
May 10
New
May 18
First Quarter

Hourly Weather History & Observations

Time (BST) Temp. Dew Point Humidity Pressure Visibility Wind Dir Wind Speed Gust Speed Precip Events Conditions
12:50 AM 50 °F 47 °F 84% 30.00 in 6 mi WSW 11.5 mph - -   Overcast
12:50 AM 50.0 °F 46.4 °F 87% 29.98 in 6.2 mi WSW 11.5 mph - N/A   Overcast
1:50 AM 50.0 °F 46.4 °F 87% 29.98 in 6.2 mi WSW 6.9 mph - N/A   Overcast
2:50 AM 50.0 °F 46.4 °F 87% 29.98 in 6.2 mi WSW 6.9 mph - N/A   Scattered Clouds
3:50 AM 50 °F 47 °F 85% 30.01 in 16 mi West 10.4 mph - -   Mostly Cloudy
3:50 AM 50.0 °F 46.4 °F 87% 30.01 in 6.2 mi West 10.4 mph - N/A   Mostly Cloudy
4:50 AM 50.0 °F 46.4 °F 87% 30.01 in 6.2 mi West 8.1 mph - N/A   Unknown
5:50 AM 50.0 °F 46.4 °F 87% 30.04 in 6.2 mi West 6.9 mph - N/A   Scattered Clouds
6:50 AM 50 °F 46 °F 81% 30.06 in 12 mi West 8.1 mph - -   Scattered Clouds
6:50 AM 50.0 °F 46.4 °F 87% 30.04 in 6.2 mi West 8.1 mph - N/A   Partly Cloudy
7:50 AM 51.8 °F 44.6 °F 76% 30.06 in 6.2 mi West 10.4 mph - N/A   Partly Cloudy
8:50 AM 53.6 °F 44.6 °F 72% 30.09 in 6.2 mi West 9.2 mph - N/A   Partly Cloudy
9:50 AM 55 °F 43 °F 54% 30.13 in 16 mi West 8.1 mph - -   Partly Cloudy
9:50 AM 55.4 °F 42.8 °F 63% 30.12 in 6.2 mi West 8.1 mph - N/A   Scattered Clouds
10:50 AM 57.2 °F 42.8 °F 59% 30.12 in 6.2 mi West 8.1 mph - N/A   Scattered Clouds
11:50 AM 59.0 °F 42.8 °F 55% 30.12 in 6.2 mi West 8.1 mph - N/A   Scattered Clouds
12:50 PM 62 °F 43 °F 38% 30.15 in 16 mi West 11.5 mph - -   Scattered Clouds
12:50 PM 62.6 °F 42.8 °F 48% 30.12 in 6.2 mi West 11.5 mph - N/A   Partly Cloudy
1:50 PM 62.6 °F 42.8 °F 48% 30.12 in 6.2 mi West 9.2 mph - N/A   Scattered Clouds
2:50 PM 64.4 °F 42.8 °F 45% 30.12 in - WSW 10.4 mph - N/A   Clear
3:50 PM 66 °F 44 °F 33% 30.14 in 19 mi West 11.5 mph - -   Clear
3:50 PM 66.2 °F 44.6 °F 46% 30.12 in - West 11.5 mph - N/A   Clear
4:50 PM 68.0 °F 44.6 °F 43% 30.12 in - West 10.4 mph - N/A   Clear
5:50 PM 68.0 °F 46.4 °F 46% 30.12 in - West 9.2 mph - N/A   Clear
6:50 PM 67 °F 46 °F 35% 30.14 in 19 mi West 11.5 mph - -   Scattered Clouds
6:50 PM 68.0 °F 46.4 °F 46% 30.12 in 6.2 mi West 11.5 mph - N/A   Scattered Clouds
7:50 PM 64.4 °F 46.4 °F 52% 30.15 in - WNW 8.1 mph - N/A   Clear
8:50 PM 60.8 °F 48.2 °F 63% 30.18 in - WNW 6.9 mph - N/A   Clear
9:50 PM 59 °F 47 °F 55% 30.20 in 19 mi West 6.9 mph - -   Clear
9:50 PM 59.0 °F 46.4 °F 63% 30.18 in - West 6.9 mph - N/A   Clear
10:50 PM 57.2 °F 48.2 °F 72% 30.21 in - West 5.8 mph - N/A   Clear
11:50 PM 53.6 °F 46.4 °F 77% 30.21 in - NNW 3.5 mph - N/A   Clear